Weather in Belogorskiy

Kazakhstan     49°27′02″N   83°04′05″E
temp.,
°C
wind,
m/s
gust,
m/s
humid.,
%
clouds,
%
prec.,
mm/h
press.,
hPa
HPBL,
m
9 may, sun
sun900:00+8wsw225991 0.0 101710
03:00+8sw2255100 0.0 101710
06:00+9ssw115397 0.0 101710
09:00+15ene213792 0.0 1015374
12:00+19nne212567 0.0 10141180
15:00+21n322415 0.0 10121746
18:00+19n223499 0.0 1011425
21:00+13w1144100 0.0 101210
10 may, mon
mon1000:00+12sw1140100 0.0 101010
03:00+12sw2236100 0.0 101010
06:00+12sw2240100 0.0 101114
09:00+18ssw12335 0.0 1009381
12:00+21nw253021 0.0 10072702
15:00+21sw453158 0.0 10062916
18:00+18nw374623 0.0 1006890
21:00+12ssw117766 0.0 100810
11 may, tue
tue1100:00+11sw226510 0.1 100715
03:00+10wnw1182100 1.6 100815
06:00+10nw228213 1.6 100866
09:00+13nw34625 0.0 1009821
12:00+15nw564813 0.0 10091349
15:00+14wnw8945100 0.0 10101304
18:00+11nw81058100 0.0 10111204
21:00+8wnw5115694 0.0 1014511
12 may, wed
wed1200:00+5w47645 0.0 1014173
03:00+4w35667 0.0 1015131
06:00+4w25701 0.0 1016211
09:00+8nw69670 0.0 1016881
12:00+11nw9105631 0.1 10151700
15:00+10nw101260100 0.4 10151821
18:00+8nw9126755 0.5 10171548
21:00+5nw513670 0.0 1019541
13 may, thu
thu1300:00+4w49710 0.0 1020226
03:00+3w36750 0.0 1020123
06:00+3w22715 0.0 102070
09:00+9nw574939 0.0 10191195
12:00+11nnw664573 0.0 10181514
15:00+12nw55405 0.0 10171787
18:00+11nnw5641100 0.0 10171603
21:00+7w2253100 0.0 101911